Details From KRIC - Richmond Intl
To KWAL - WALLOPS FLIGHT FACILITY
Flight Number -
Tags decoded
Created
Modified
Stats Distance 113 nm / 209 km
Max Altitude 0 ft / 0 m
Waypoints 4
Social Downloads 0
Likes 0
Share VATSIM

Download

Looking for another format? Having issues loading an existing format? Contact us
Advertisement - Login to hide

Notes

Requested: KRIC AXASE FIBED KWAL

Route

KRIC AXASE FIBED KWAL

ID Type Via Altitude Latitude Longitude Leg Dist Tot Dist Heading (true) Name
O KRIC APT - 0 ft / 0 m 37.50473˚ -77.32011˚ - 0 nm - Richmond Intl
AXASE FIX - 0 ft / 0 m 38.10294˚ -75.33083˚ 100 nm 100 nm 69° / 70° -
FIBED FIX - 0 ft / 0 m 38.01834˚ -75.39833˚ 6 nm 106 nm 212° / 212° -
O KWAL APT - 0 ft / 0 m 37.94039˚ -75.46628˚ 5 nm 112 nm 215° / 214° WALLOPS FLIGHT FACILITY

Altitude Profile

Advertisement - Login to hide

KRIC

Details ICAO KRIC (RIC)
Name Richmond Intl
Region United States
Timezone America/New_York (UTC-5.0)
Stats Elevation 167 ft / 51 m (AMSL)
Location 37.504728° -77.320112°
Runways 3
Magnetic Variation 10.381° W

METAR

KRIC 161454Z 23005KT 10SM FEW110 FEW300 06/M05 A3022 RMK AO2 SLP241 T00561050 50009

Decode

TAF

KRIC 161137Z 1612/1712 25004KT P6SM SKC FM161500 24010KT P6SM SCT150 FM162200 22005KT P6SM SKC

Decode

Departure Runways

ID Width Length Bearing (true) Bearing (mag) Surface Threshold Offset Overrun Length
02 151 ft / 46 m 6,619 ft / 2,018 m 13.39° 23.77° Asphalt 0 ft / 0 m 125 ft / 38 m
07 98 ft / 30 m 5,312 ft / 1,619 m 57.36° 67.74° Asphalt 0 ft / 0 m 200 ft / 61 m
16 151 ft / 46 m 9,027 ft / 2,751 m 147.64° 158.02° Asphalt 0 ft / 0 m 1,001 ft / 305 m
20 151 ft / 46 m 6,619 ft / 2,018 m 193.39° 203.77° Asphalt 0 ft / 0 m 276 ft / 84 m
25 98 ft / 30 m 5,312 ft / 1,619 m 237.36° 247.74° Asphalt 0 ft / 0 m 0 ft / 0 m
34 151 ft / 46 m 9,027 ft / 2,751 m 327.66° 338.04° Asphalt 0 ft / 0 m 1,001 ft / 305 m

KWAL

Details ICAO KWAL (WAL)
Name WALLOPS FLIGHT FACILITY
Region United States
Timezone America/New_York (UTC-5.0)
Stats Elevation 40 ft / 12 m (AMSL)
Location 37.940390° -75.466276°
Runways 3
Magnetic Variation 11.523° W

METAR

KWAL 161454Z AUTO 26008KT 10SM CLR 05/M03 A3021 RMK AO2 SLP226 T00501028 51007

Decode

TAF

Not found

Destination Runways

ID Width Length Bearing (true) Bearing (mag) Surface Threshold Offset Overrun Length
04 150 ft / 46 m 8,757 ft / 2,669 m 32.07° 43.59° Asphalt 0 ft / 0 m 0 ft / 0 m
10 200 ft / 61 m 7,988 ft / 2,435 m 90.36° 101.88° Asphalt 0 ft / 0 m 0 ft / 0 m
17 150 ft / 46 m 4,816 ft / 1,468 m 157.81° 169.33° Asphalt 0 ft / 0 m 0 ft / 0 m
22 150 ft / 46 m 8,757 ft / 2,669 m 212.08° 223.60° Asphalt 0 ft / 0 m 0 ft / 0 m
28 200 ft / 61 m 7,988 ft / 2,435 m 270.37° 281.89° Asphalt 0 ft / 0 m 0 ft / 0 m
35 150 ft / 46 m 4,816 ft / 1,468 m 337.81° 349.33° Asphalt 0 ft / 0 m 0 ft / 0 m

Popular Alternatives